GFSFLT1_500_temp_144.txt.gz
Temp
-13 -13 -13 -13 -12 -12 -12 -13 -13 -13 -13 -13 -13 -12 -12 -12 -12 -12 -13 -13 -12 -12 -13 -14 -13 -12 -12 -12 -12 -12 -12 -12
-13 -13 -13 -13 -13 -13 -13 -13 -13 -13 -13 -13 -13 -13 -12 -12 -13 -13 -13 -13 -13 -12 -12 -14 -14 -12 -13 -12 -12 -12 -12 -12
-14 -14 -14 -13 -13 -13 -13 -13 -13 -13 -13 -13 -13 -13 -13 -12 -12 -13 -13 -13 -13 -12 -12 -11 -12 -11 -12 -12 -12 -12 -12 -12
-14 -14 -14 -14 -14 -14 -13 -13 -14 -13 -13 -13 -13 -13 -13 -13 -13 -12 -13 -13 -13 -13 -13 -12 -11 -12 -12 -13 -12 -13 -13 -12
-15 -15 -15 -15 -17 -17 -17 -17 -16 -16 -16 -16 -15 -14 -13 -14 -14 -13 -12 -13 -13 -12 -12 -13 -10 -11 -12 -13 -13 -12 -13 -13
-15 -15 -16 -17 -18 -17 -17 -17 -17 -17 -16 -17 -17 -17 -16 -16 -15 -14 -13 -12 -13 -12 -13 -12 -12 -11 -12 -13 -13 -13 -13 -13
-16 -17 -18 -19 -18 -18 -17 -17 -17 -16 -16 -16 -16 -16 -16 -16 -16 -16 -15 -13 -13 -12 -12 -13 -13 -13 -12 -13 -13 -13 -13 -13
-18 -19 -19 -19 -19 -18 -18 -18 -18 -17 -17 -16 -16 -16 -16 -16 -16 -15 -16 -14 -13 -13 -13 -12 -13 -13 -12 -12 -14 -14 -14 -14
-20 -19 -19 -19 -19 -18 -18 -18 -18 -18 -16 -16 -15 -15 -15 -16 -16 -16 -16 -15 -15 -14 -13 -13 -12 -14 -14 -12 -13 -14 -15 -14
-20 -20 -19 -19 -19 -18 -18 -18 -18 -17 -16 -15 -16 -15 -16 -16 -16 -17 -18 -16 -15 -15 -14 -14 -13 -14 -13 -12 -13 -14 -15 -14
-20 -20 -20 -19 -19 -18 -18 -17 -17 -17 -17 -17 -17 -16 -16 -16 -17 -17 -18 -18 -17 -15 -16 -15 -14 -14 -13 -14 -13 -14 -15 -15
-20 -20 -20 -19 -19 -19 -19 -18 -18 -17 -16 -16 -16 -16 -17 -17 -19 -19 -20 -19 -19 -17 -16 -15 -15 -14 -15 -14 -13 -12 -15 -15
-21 -21 -20 -20 -20 -20 -20 -19 -18 -18 -17 -16 -16 -16 -17 -18 -20 -20 -20 -20 -19 -19 -18 -16 -16 -14 -14 -13 -13 -13 -14 -14
-21 -21 -21 -21 -21 -20 -21 -20 -20 -20 -19 -17 -17 -17 -18 -19 -20 -20 -20 -21 -20 -20 -19 -16 -16 -14 -13 -13 -13 -12 -14 -13
-22 -21 -21 -21 -21 -21 -21 -21 -21 -20 -20 -19 -19 -19 -19 -19 -20 -20 -19 -19 -20 -20 -19 -17 -16 -14 -12 -13 -14 -13 -13 -13
-22 -22 -22 -22 -22 -21 -21 -21 -21 -21 -20 -19 -20 -20 -20 -20 -19 -19 -19 -18 -18 -18 -18 -18 -17 -16 -14 -14 -14 -14 -13 -14
-22 -22 -22 -22 -22 -22 -21 -21 -21 -21 -21 -21 -19 -19 -19 -20 -19 -18 -18 -19 -18 -18 -18 -17 -16 -15 -15 -14 -15 -14 -13 -13
-23 -22 -22 -22 -22 -22 -21 -21 -21 -21 -21 -21 -21 -20 -19 -18 -19 -18 -18 -18 -17 -17 -17 -16 -15 -15 -15 -15 -14 -15 -14 -14
-23 -23 -23 -22 -22 -22 -22 -21 -21 -21 -21 -21 -21 -21 -21 -21 -19 -18 -18 -17 -17 -17 -17 -17 -15 -15 -15 -15 -15 -14 -13 -13

GFSFLT1_500_temp_147.txt.gz
Temp
-12 -12 -12 -12 -12 -12 -12 -13 -13 -13 -13 -13 -13 -13 -13 -13 -12 -12 -12 -13 -13 -13 -13 -13 -12 -12 -12 -13 -13 -13 -13 -13
-13 -13 -13 -13 -13 -13 -13 -13 -13 -13 -13 -13 -13 -13 -13 -13 -13 -13 -13 -12 -13 -13 -13 -13 -13 -13 -12 -12 -13 -14 -14 -13
-13 -13 -13 -13 -13 -13 -13 -13 -13 -13 -13 -13 -13 -13 -12 -13 -14 -13 -13 -13 -13 -13 -13 -13 -13 -12 -12 -12 -13 -13 -14 -13
-14 -13 -13 -13 -14 -14 -14 -14 -14 -14 -13 -13 -13 -13 -12 -12 -12 -13 -13 -13 -13 -13 -13 -13 -13 -12 -12 -11 -12 -13 -13 -14
-14 -14 -14 -15 -15 -15 -15 -14 -14 -13 -14 -14 -14 -14 -15 -15 -14 -14 -15 -14 -13 -13 -13 -13 -13 -13 -13 -12 -12 -12 -13 -13
-15 -15 -15 -15 -15 -15 -15 -16 -17 -16 -16 -16 -16 -16 -16 -16 -16 -17 -17 -16 -14 -13 -13 -13 -13 -13 -13 -12 -12 -12 -13 -14
-15 -15 -15 -16 -16 -16 -17 -18 -18 -18 -17 -17 -16 -16 -16 -16 -16 -16 -17 -17 -16 -14 -14 -13 -13 -13 -13 -13 -13 -13 -13 -14
-16 -16 -16 -17 -17 -18 -19 -19 -19 -18 -18 -17 -16 -16 -16 -15 -16 -16 -16 -16 -17 -16 -15 -14 -13 -13 -13 -14 -14 -13 -12 -13
-17 -17 -17 -19 -19 -19 -19 -19 -19 -18 -18 -18 -17 -17 -16 -16 -15 -16 -16 -16 -16 -16 -16 -16 -15 -14 -13 -13 -14 -14 -13 -13
-18 -18 -19 -20 -20 -20 -19 -19 -19 -19 -18 -18 -18 -17 -16 -16 -16 -16 -16 -16 -16 -16 -16 -16 -16 -15 -14 -13 -14 -13 -13 -12
-18 -19 -20 -21 -21 -21 -20 -20 -19 -19 -18 -18 -18 -17 -16 -16 -16 -16 -16 -16 -16 -16 -16 -16 -15 -15 -15 -14 -14 -14 -13 -13
-20 -21 -21 -21 -21 -21 -21 -20 -19 -19 -19 -19 -18 -17 -17 -17 -17 -17 -16 -16 -16 -17 -18 -17 -17 -16 -15 -15 -14 -14 -14 -13
-21 -22 -22 -22 -21 -21 -21 -21 -20 -20 -20 -20 -19 -18 -17 -16 -17 -17 -17 -18 -18 -18 -20 -19 -18 -17 -17 -16 -16 -15 -15 -14
-22 -22 -22 -22 -22 -21 -21 -21 -21 -21 -20 -21 -21 -20 -19 -17 -18 -17 -18 -18 -19 -19 -20 -19 -18 -18 -17 -17 -16 -16 -15 -14
-22 -22 -22 -22 -22 -22 -22 -22 -22 -21 -21 -21 -21 -21 -20 -20 -19 -19 -18 -19 -19 -19 -18 -19 -19 -19 -19 -18 -17 -16 -16 -14
-22 -22 -23 -22 -22 -22 -22 -22 -22 -22 -21 -21 -21 -21 -21 -20 -21 -19 -19 -19 -19 -19 -19 -19 -19 -19 -19 -18 -17 -16 -16 -15
-22 -23 -23 -23 -23 -22 -22 -22 -22 -22 -22 -21 -21 -21 -21 -21 -21 -21 -20 -20 -19 -18 -18 -18 -19 -18 -19 -19 -17 -16 -16 -15
-22 -23 -23 -23 -23 -23 -23 -23 -22 -22 -22 -21 -21 -21 -21 -21 -21 -22 -21 -21 -20 -19 -20 -18 -19 -18 -18 -18 -18 -17 -17 -16
-23 -23 -23 -23 -23 -23 -23 -23 -23 -23 -22 -21 -21 -21 -21 -21 -21 -21 -22 -22 -21 -20 -19 -19 -19 -18 -17 -18 -17 -17 -16 -15

GFSFLT1_500_temp_150.txt.gz
Temp
-13 -13 -12 -12 -12 -12 -12 -12 -12 -12 -13 -13 -13 -13 -13 -13 -13 -13 -13 -13 -12 -12 -13 -13 -13 -12 -11 -12 -12 -13 -13 -13
-13 -13 -13 -13 -13 -13 -12 -13 -13 -13 -13 -13 -13 -13 -13 -13 -13 -13 -13 -13 -13 -13 -12 -13 -13 -13 -12 -12 -12 -12 -12 -14
-13 -12 -13 -13 -13 -13 -13 -13 -12 -13 -13 -13 -13 -13 -13 -13 -13 -13 -13 -13 -13 -13 -13 -13 -13 -13 -13 -13 -12 -12 -12 -12
-13 -13 -13 -14 -14 -14 -13 -13 -13 -13 -14 -13 -13 -13 -13 -13 -13 -13 -13 -13 -13 -13 -13 -13 -13 -13 -13 -13 -13 -13 -13 -13
-14 -14 -14 -14 -14 -14 -14 -14 -14 -14 -14 -14 -14 -14 -14 -13 -13 -13 -13 -13 -14 -14 -13 -13 -13 -13 -13 -13 -13 -13 -13 -10
-14 -15 -15 -15 -15 -15 -15 -15 -15 -15 -15 -14 -15 -15 -14 -14 -14 -15 -15 -16 -16 -16 -16 -16 -15 -13 -13 -13 -14 -14 -13 -13
-15 -16 -16 -16 -16 -16 -16 -16 -16 -16 -16 -16 -16 -17 -17 -17 -16 -16 -16 -16 -16 -16 -16 -16 -16 -16 -14 -14 -14 -14 -13 -13
-16 -16 -16 -16 -16 -16 -16 -16 -17 -17 -18 -19 -19 -19 -18 -18 -16 -16 -16 -16 -16 -16 -16 -16 -17 -17 -17 -15 -15 -14 -14 -13
-16 -16 -17 -17 -17 -17 -17 -18 -18 -19 -20 -20 -20 -19 -18 -18 -17 -16 -16 -15 -16 -16 -16 -16 -17 -17 -17 -17 -16 -15 -15 -14
-17 -17 -17 -18 -18 -18 -18 -20 -21 -21 -20 -20 -20 -19 -19 -18 -18 -18 -16 -16 -16 -16 -16 -16 -17 -17 -17 -17 -16 -16 -15 -15
-18 -18 -18 -18 -18 -19 -21 -21 -21 -21 -21 -20 -20 -19 -19 -18 -18 -18 -17 -16 -16 -16 -17 -16 -16 -16 -17 -17 -17 -17 -17 -16
-18 -18 -18 -18 -20 -21 -22 -22 -21 -21 -21 -21 -21 -20 -20 -20 -19 -18 -17 -17 -16 -16 -17 -17 -17 -17 -17 -17 -17 -17 -17 -17
-18 -19 -19 -20 -22 -22 -22 -22 -22 -22 -21 -21 -21 -21 -21 -21 -21 -19 -18 -17 -17 -18 -18 -18 -18 -17 -18 -18 -18 -17 -17 -17
-19 -20 -21 -22 -22 -22 -22 -22 -22 -22 -22 -22 -21 -21 -21 -21 -21 -21 -19 -18 -18 -18 -18 -17 -18 -18 -18 -17 -18 -18 -18 -17
-20 -21 -21 -22 -22 -22 -22 -22 -22 -22 -22 -22 -22 -21 -21 -21 -21 -21 -21 -19 -19 -18 -18 -18 -19 -19 -18 -19 -20 -19 -18 -18
-20 -21 -21 -21 -22 -22 -22 -22 -22 -22 -22 -22 -22 -21 -21 -21 -21 -21 -21 -21 -21 -19 -19 -18 -18 -18 -19 -19 -20 -19 -19 -18
-21 -21 -21 -22 -22 -22 -22 -22 -23 -23 -23 -23 -22 -22 -22 -21 -21 -21 -21 -22 -21 -22 -21 -20 -19 -19 -19 -19 -19 -20 -19 -19
-21 -21 -22 -22 -22 -23 -23 -23 -23 -23 -23 -23 -23 -23 -22 -22 -21 -21 -21 -21 -21 -22 -21 -21 -21 -21 -20 -20 -20 -20 -20 -20
-22 -22 -22 -22 -23 -23 -23 -24 -24 -24 -24 -24 -23 -23 -23 -23 -22 -21 -21 -21 -21 -21 -21 -21 -21 -21 -21 -20 -20 -20 -19 -20

GFSFLT1_500_temp_153.txt.gz
Temp
-13 -13 -13 -13 -12 -12 -12 -12 -12 -12 -12 -12 -12 -13 -13 -13 -13 -13 -13 -13 -13 -12 -12 -12 -12 -12 -13 -13 -13 -13 -12 -12
-13 -13 -13 -13 -13 -13 -13 -13 -13 -13 -13 -13 -13 -13 -13 -13 -13 -13 -13 -13 -13 -13 -12 -12 -12 -12 -13 -13 -13 -13 -12 -13
-13 -13 -13 -13 -13 -13 -13 -13 -13 -13 -13 -13 -13 -13 -13 -13 -13 -13 -13 -13 -13 -13 -13 -13 -13 -13 -13 -13 -13 -13 -13 -12
-14 -13 -13 -13 -13 -13 -13 -13 -13 -13 -13 -13 -13 -13 -13 -13 -13 -13 -13 -13 -13 -13 -13 -13 -13 -13 -13 -13 -13 -13 -13 -13
-14 -14 -14 -14 -14 -14 -13 -13 -13 -14 -14 -14 -14 -14 -14 -13 -13 -13 -13 -13 -13 -13 -13 -13 -13 -13 -13 -13 -13 -13 -13 -13
-15 -15 -15 -15 -15 -14 -14 -14 -15 -15 -15 -14 -14 -14 -14 -14 -14 -14 -14 -14 -14 -14 -14 -14 -14 -13 -13 -13 -14 -15 -14 -14
-16 -16 -15 -15 -15 -15 -15 -16 -16 -15 -15 -15 -14 -15 -15 -15 -15 -15 -16 -16 -16 -16 -16 -17 -16 -16 -16 -16 -16 -15 -16 -15
-16 -16 -16 -16 -16 -16 -16 -16 -16 -16 -16 -16 -16 -16 -16 -16 -17 -18 -18 -18 -18 -18 -17 -16 -16 -16 -16 -15 -15 -15 -15 -16
-16 -16 -16 -17 -17 -17 -17 -17 -17 -17 -17 -17 -17 -18 -19 -19 -19 -19 -19 -18 -18 -18 -16 -17 -16 -16 -16 -15 -15 -16 -16 -16
-16 -17 -17 -17 -17 -18 -18 -18 -18 -18 -18 -19 -20 -20 -20 -20 -20 -20 -19 -19 -19 -18 -17 -17 -16 -16 -16 -16 -16 -16 -16 -16
-17 -17 -18 -18 -18 -18 -18 -18 -19 -20 -21 -21 -21 -21 -21 -21 -20 -20 -20 -19 -19 -18 -18 -17 -16 -16 -16 -16 -16 -16 -17 -17
-18 -18 -18 -18 -18 -18 -19 -19 -20 -21 -21 -22 -22 -22 -22 -21 -21 -21 -21 -20 -19 -19 -17 -17 -17 -17 -17 -17 -17 -17 -17 -17
-19 -19 -19 -19 -19 -19 -20 -21 -21 -21 -21 -21 -21 -22 -22 -22 -21 -21 -21 -21 -20 -20 -18 -17 -17 -17 -17 -17 -18 -17 -17 -17
-19 -19 -19 -20 -20 -20 -21 -21 -21 -21 -21 -21 -21 -22 -22 -22 -21 -21 -21 -21 -21 -20 -20 -19 -18 -18 -18 -17 -17 -18 -17 -18
-20 -20 -20 -20 -21 -21 -21 -21 -22 -22 -22 -22 -22 -22 -22 -22 -22 -21 -21 -21 -21 -21 -21 -21 -18 -18 -18 -18 -18 -18 -18 -19
-20 -21 -21 -21 -21 -21 -22 -22 -22 -22 -22 -22 -22 -22 -22 -22 -22 -22 -22 -21 -21 -21 -20 -21 -21 -20 -18 -18 -18 -18 -19 -19
-21 -21 -21 -21 -22 -22 -22 -22 -22 -22 -22 -22 -23 -23 -22 -22 -22 -22 -22 -22 -21 -21 -21 -21 -21 -22 -21 -19 -18 -19 -19 -20
-21 -22 -22 -22 -22 -22 -23 -23 -23 -23 -23 -24 -24 -25 -24 -24 -24 -23 -23 -22 -22 -21 -21 -21 -21 -21 -22 -22 -20 -20 -20 -20
-22 -22 -22 -23 -23 -23 -24 -24 -24 -25 -25 -26 -26 -25 -25 -25 -25 -24 -23 -23 -22 -21 -21 -21 -21 -20 -21 -21 -22 -21 -20 -20

GFSFLT1_500_temp_156.txt.gz
Temp
-13 -13 -13 -12 -12 -12 -12 -13 -12 -12 -13 -13 -13 -13 -13 -13 -13 -13 -13 -13 -13 -13 -12 -12 -12 -12 -12 -13 -13 -13 -12 -13
-13 -13 -13 -13 -13 -13 -13 -13 -13 -13 -13 -13 -13 -13 -13 -13 -13 -13 -13 -13 -13 -12 -12 -12 -12 -12 -12 -12 -13 -13 -13 -13
-13 -13 -13 -13 -13 -13 -13 -13 -13 -13 -13 -13 -13 -13 -13 -13 -13 -13 -13 -13 -13 -12 -12 -12 -12 -12 -12 -12 -12 -13 -13 -13
-14 -14 -14 -14 -14 -14 -14 -14 -14 -14 -13 -13 -13 -13 -13 -13 -13 -13 -13 -13 -13 -13 -13 -13 -12 -12 -13 -13 -12 -12 -13 -13
-14 -14 -14 -14 -14 -14 -14 -14 -14 -14 -14 -14 -14 -14 -14 -14 -14 -14 -14 -14 -13 -13 -13 -13 -13 -13 -13 -13 -13 -13 -13 -13
-15 -15 -15 -15 -15 -15 -15 -15 -15 -14 -14 -14 -14 -14 -15 -15 -15 -15 -14 -14 -14 -14 -14 -14 -14 -14 -14 -14 -13 -13 -13 -13
-15 -15 -15 -15 -15 -15 -15 -15 -15 -15 -15 -15 -15 -15 -15 -15 -15 -15 -15 -15 -15 -15 -15 -14 -14 -14 -14 -14 -14 -14 -14 -14
-16 -16 -16 -16 -16 -16 -16 -15 -16 -16 -16 -16 -16 -16 -16 -16 -16 -16 -16 -17 -17 -17 -17 -18 -19 -18 -17 -17 -17 -17 -16 -16
-17 -17 -16 -16 -16 -16 -16 -16 -17 -17 -17 -17 -17 -17 -17 -17 -17 -17 -17 -18 -18 -19 -19 -19 -19 -18 -18 -18 -17 -17 -16 -16
-17 -17 -17 -17 -17 -17 -17 -17 -18 -18 -18 -18 -18 -18 -18 -18 -18 -18 -19 -19 -20 -20 -20 -20 -19 -19 -18 -18 -17 -16 -17 -16
-18 -18 -17 -17 -17 -18 -18 -18 -18 -18 -19 -19 -19 -19 -19 -19 -20 -20 -20 -20 -21 -21 -21 -20 -20 -19 -18 -17 -17 -16 -16 -16
-18 -18 -18 -18 -19 -19 -19 -19 -19 -19 -19 -20 -20 -20 -20 -21 -20 -20 -20 -20 -21 -21 -21 -21 -20 -20 -19 -18 -17 -16 -16 -16
-19 -19 -19 -19 -20 -20 -20 -20 -20 -20 -20 -21 -21 -21 -21 -21 -21 -21 -21 -21 -21 -21 -21 -21 -21 -20 -20 -19 -18 -17 -17 -17
-20 -20 -20 -21 -20 -20 -20 -20 -21 -21 -21 -21 -21 -22 -22 -22 -22 -21 -21 -21 -21 -21 -21 -21 -21 -20 -20 -20 -19 -18 -17 -17
-21 -22 -22 -21 -20 -21 -21 -21 -21 -21 -21 -22 -22 -22 -22 -22 -22 -22 -22 -22 -22 -22 -22 -21 -21 -21 -20 -20 -19 -18 -18 -18
-22 -21 -21 -21 -21 -21 -21 -21 -22 -22 -22 -22 -22 -23 -23 -23 -23 -24 -24 -23 -23 -23 -22 -22 -21 -21 -20 -20 -21 -19 -18 -17
-22 -22 -21 -21 -21 -21 -22 -22 -22 -22 -22 -23 -24 -25 -25 -25 -25 -25 -25 -25 -25 -24 -23 -22 -22 -21 -21 -20 -21 -21 -19 -19
-22 -22 -22 -22 -22 -22 -22 -22 -23 -23 -24 -25 -25 -25 -26 -26 -26 -26 -25 -25 -25 -25 -24 -23 -22 -21 -21 -21 -21 -21 -22 -21
-22 -22 -22 -22 -22 -23 -23 -23 -24 -25 -25 -25 -26 -26 -26 -26 -26 -26 -26 -25 -25 -25 -24 -23 -23 -22 -22 -21 -21 -21 -22 -22

GFSFLT1_500_temp_159.txt.gz
Temp
-13 -13 -13 -13 -13 -13 -13 -13 -13 -12 -13 -13 -13 -13 -13 -13 -13 -13 -12 -12 -13 -13 -13 -12 -13 -13 -13 -13 -13 -13 -13 -13
-13 -13 -13 -13 -13 -13 -13 -13 -13 -13 -13 -13 -13 -13 -13 -13 -13 -13 -13 -13 -12 -12 -13 -13 -13 -13 -13 -13 -13 -12 -12 -13
-13 -13 -13 -13 -13 -13 -13 -13 -13 -13 -13 -13 -13 -13 -14 -14 -13 -13 -13 -13 -13 -13 -12 -12 -12 -12 -12 -12 -12 -12 -12 -13
-14 -14 -14 -14 -14 -14 -14 -14 -14 -14 -14 -14 -14 -14 -14 -14 -14 -14 -13 -13 -13 -13 -13 -13 -13 -12 -12 -12 -12 -12 -12 -13
-15 -14 -14 -14 -14 -14 -14 -14 -14 -14 -14 -14 -14 -15 -14 -14 -14 -14 -14 -14 -14 -14 -14 -14 -13 -13 -13 -13 -13 -13 -13 -12
-15 -15 -15 -15 -15 -15 -15 -15 -15 -15 -15 -15 -15 -15 -15 -15 -15 -15 -15 -15 -15 -15 -15 -15 -14 -14 -14 -13 -13 -14 -14 -13
-16 -16 -16 -16 -16 -16 -16 -15 -16 -16 -16 -15 -16 -16 -16 -16 -16 -16 -16 -16 -16 -16 -16 -15 -15 -15 -14 -14 -14 -14 -14 -14
-17 -16 -16 -16 -16 -16 -16 -16 -16 -16 -16 -16 -16 -16 -16 -16 -16 -17 -17 -17 -17 -16 -16 -16 -16 -15 -15 -15 -15 -16 -17 -17
-17 -17 -17 -18 -17 -17 -17 -17 -17 -17 -17 -16 -17 -17 -17 -17 -17 -17 -17 -18 -18 -17 -17 -17 -17 -17 -17 -18 -19 -19 -18 -18
-17 -18 -18 -18 -18 -17 -17 -18 -18 -17 -17 -18 -18 -18 -18 -18 -18 -18 -18 -18 -19 -19 -19 -19 -19 -19 -19 -19 -20 -19 -19 -18
-18 -18 -18 -18 -18 -18 -18 -18 -18 -19 -19 -19 -19 -19 -19 -19 -19 -19 -19 -20 -20 -20 -20 -19 -19 -19 -20 -20 -20 -20 -19 -18
-19 -19 -19 -19 -19 -19 -19 -19 -20 -20 -20 -20 -20 -20 -20 -20 -20 -20 -20 -20 -21 -21 -20 -20 -20 -20 -20 -21 -20 -20 -20 -19
-20 -20 -20 -20 -20 -19 -19 -21 -21 -20 -21 -20 -21 -21 -21 -21 -21 -21 -21 -21 -21 -21 -21 -21 -21 -21 -21 -21 -21 -20 -20 -20
-21 -20 -20 -20 -20 -20 -22 -22 -21 -21 -21 -21 -21 -21 -21 -21 -21 -21 -21 -22 -22 -22 -22 -22 -22 -22 -21 -21 -21 -21 -20 -20
-21 -20 -20 -21 -21 -22 -22 -21 -21 -21 -21 -21 -21 -21 -22 -22 -22 -22 -23 -24 -24 -24 -24 -24 -24 -23 -22 -22 -21 -21 -20 -20
-21 -21 -21 -23 -23 -22 -22 -21 -21 -21 -21 -22 -22 -22 -22 -23 -24 -24 -25 -25 -25 -25 -25 -25 -25 -25 -23 -22 -22 -22 -21 -20
-21 -21 -22 -23 -22 -22 -22 -22 -22 -22 -22 -22 -23 -24 -24 -25 -25 -26 -26 -25 -25 -25 -25 -25 -25 -25 -24 -23 -22 -22 -22 -22
-22 -23 -23 -23 -22 -22 -22 -22 -22 -22 -23 -24 -24 -25 -25 -26 -26 -26 -26 -26 -26 -25 -26 -26 -26 -25 -24 -24 -23 -22 -22 -22
-22 -23 -22 -22 -22 -22 -22 -23 -23 -24 -24 -25 -25 -25 -25 -26 -26 -26 -27 -26 -26 -26 -26 -26 -26 -25 -24 -24 -23 -23 -22 -22